When you browse on this site, cookies collect data to enhance your experience and personalize the content and advertising you see.
Visit our Privacy Policy to learn more. By continuing to use the site, you agree to this use of cookies and data.
  • En España
  • Lista de países
  • Para 7 días
  • Temperatura del agua
  • El tiempo en el mapa
  • Informadores
  • user-avatar
    Iniciar sesión

    Tiempo cada hora Lebu

    Hoy, 29 Enero, Miércoles

    Tiempo Temperatura Precipitaciones Viento Presión Humedad
    00:00 +8°C° 0 mm 9 mps 748 mmHg 74%
    01:00 +9°C° 0 mm 8 mps 748 mmHg 76%
    02:00 +7°C° 0 mm 8 mps 748 mmHg 78%
    03:00 +7°C° 0 mm 8 mps 748 mmHg 80%
    04:00 +6°C° 0 mm 8 mps 748 mmHg 83%
    05:00 +9°C° 0 mm 8 mps 748 mmHg 75%
    06:00 +10°C° 0 mm 8 mps 748 mmHg 67%
    07:00 +11°C° 0 mm 8 mps 749 mmHg 60%
    08:00 +13°C° 0 mm 8 mps 749 mmHg 52%
    09:00 +17°C° 0 mm 8 mps 749 mmHg 44%
    10:00 +20°C° 0 mm 8 mps 749 mmHg 36%
    11:00 +20°C° 0 mm 8 mps 749 mmHg 37%
    12:00 +19°C° 0 mm 9 mps 749 mmHg 38%
    13:00 +19°C° 0 mm 9 mps 749 mmHg 40%
    14:00 +18°C° 0 mm 9 mps 749 mmHg 43%
    15:00 +18°C° 0 mm 9 mps 748 mmHg 46%
    16:00 +17°C° 0 mm 9 mps 748 mmHg 49%
    17:00 +16°C° 0 mm 9 mps 748 mmHg 56%
    18:00 +15°C° 0 mm 9 mps 748 mmHg 62%
    19:00 +12°C° 0 mm 8 mps 748 mmHg 69%
    20:00 +11°C° 0 mm 8 mps 748 mmHg 70%
    21:00 +11°C° 0 mm 8 mps 749 mmHg 72%
    22:00 +10°C° 0 mm 8 mps 749 mmHg 74%
    23:00 +10°C° 0 mm 7 mps 748 mmHg 75%

    Mañana, 30 Enero, Jueves

    Tiempo Temperatura Precipitaciones Viento Presión Humedad
    00:00 +9°C° 0 mm 7 mps 748 mmHg 76%
    01:00 +9°C° 0 mm 7 mps 748 mmHg 78%
    02:00 +8°C° 0 mm 7 mps 748 mmHg 78%
    03:00 +8°C° 0 mm 6 mps 748 mmHg 77%
    04:00 +7°C° 0 mm 6 mps 748 mmHg 77%
    05:00 +9°C° 0 mm 6 mps 748 mmHg 67%
    06:00 +11°C° 0 mm 6 mps 748 mmHg 57%
    07:00 +14°C° 0 mm 6 mps 748 mmHg 47%
    08:00 +16°C° 0 mm 7 mps 748 mmHg 43%
    09:00 +20°C° 0 mm 7 mps 748 mmHg 40%
    10:00 +22°C° 0 mm 7 mps 748 mmHg 36%
    11:00 +22°C° 0 mm 7 mps 748 mmHg 38%
    12:00 +22°C° 0 mm 8 mps 747 mmHg 39%
    13:00 +22°C° 0 mm 8 mps 747 mmHg 41%
    14:00 +21°C° 0 mm 8 mps 747 mmHg 42%
    15:00 +21°C° 0 mm 8 mps 747 mmHg 44%
    16:00 +21°C° 0 mm 8 mps 746 mmHg 45%
    17:00 +18°C° 0 mm 8 mps 746 mmHg 52%
    18:00 +17°C° 0 mm 8 mps 747 mmHg 59%
    19:00 +16°C° 0 mm 9 mps 747 mmHg 65%
    20:00 +15°C° 0 mm 8 mps 747 mmHg 69%
    21:00 +15°C° 0 mm 8 mps 747 mmHg 73%
    22:00 +15°C° 0 mm 7 mps 747 mmHg 77%
    23:00 +14°C° 0 mm 7 mps 747 mmHg 80%

    Pasado mañana, 31 Enero, Viernes

    Tiempo Temperatura Precipitaciones Viento Presión Humedad
    00:00 +14°C° 0 mm 7 mps 747 mmHg 84%
    01:00 +13°C° 0 mm 6 mps 746 mmHg 88%
    02:00 +13°C° 0 mm 6 mps 746 mmHg 89%
    03:00 +11°C° 0 mm 6 mps 746 mmHg 91%
    04:00 +12°C° 0 mm 5 mps 746 mmHg 92%
    05:00 +13°C° 0 mm 5 mps 746 mmHg 85%
    06:00 +15°C° 0 mm 5 mps 746 mmHg 78%
    07:00 +17°C° 0 mm 5 mps 746 mmHg 72%
    08:00 +20°C° 0 mm 5 mps 746 mmHg 63%
    09:00 +23°C° 0 mm 5 mps 746 mmHg 55%
    10:00 +26°C° 0 mm 6 mps 746 mmHg 47%
    11:00 +26°C° 0 mm 6 mps 746 mmHg 48%
    12:00 +26°C° 0 mm 6 mps 746 mmHg 50%
    13:00 +26°C° 0 mm 7 mps 746 mmHg 51%
    14:00 +24°C° 0 mm 6 mps 746 mmHg 55%
    15:00 +23°C° 0 mm 6 mps 745 mmHg 58%
    16:00 +22°C° 0 mm 5 mps 745 mmHg 62%
    17:00 +20°C° 0 mm 5 mps 745 mmHg 69%
    18:00 +19°C° 0 mm 4 mps 745 mmHg 77%
    19:00 +17°C° 0 mm 4 mps 745 mmHg 85%
    20:00 +15°C° 0 mm 4 mps 745 mmHg 88%
    21:00 +14°C° 0 mm 3 mps 745 mmHg 92%
    22:00 +14°C° 0 mm 3 mps 745 mmHg 95%
    23:00 +13°C° 0 mm 3 mps 745 mmHg 95%

    1 Febrero, Sábado

    Tiempo Temperatura Precipitaciones Viento Presión Humedad
    00:00 +14°C° 0 mm 2 mps 745 mmHg 95%
    01:00 +14°C° 0 mm 1 mps 745 mmHg 96%
    02:00 +14°C° 0 mm 1 mps 745 mmHg 96%
    03:00 +14°C° 0 mm 1 mps 745 mmHg 96%
    04:00 +12°C° 0 mm 0 mps 745 mmHg 97%
    05:00 +14°C° 0 mm 1 mps 745 mmHg 93%
    06:00 +16°C° 0 mm 1 mps 745 mmHg 89%
    07:00 +18°C° 0 mm 1 mps 745 mmHg 86%
    08:00 +19°C° 0 mm 2 mps 745 mmHg 77%
    09:00 +21°C° 0 mm 3 mps 745 mmHg 69%
    10:00 +24°C° 0 mm 3 mps 745 mmHg 60%
    11:00 +23°C° 0 mm 4 mps 745 mmHg 62%
    12:00 +23°C° 0 mm 4 mps 745 mmHg 63%
    13:00 +23°C° 0 mm 4 mps 746 mmHg 65%
    14:00 +21°C° 0.1 mm 4 mps 746 mmHg 74%
    15:00 +19°C° 0.1 mm 4 mps 746 mmHg 84%
    16:00 +17°C° 0.1 mm 4 mps 746 mmHg 93%
    17:00 +16°C° 0 mm 3 mps 746 mmHg 91%
    18:00 +14°C° 0 mm 3 mps 747 mmHg 89%
    19:00 +15°C° 0 mm 2 mps 747 mmHg 87%
    20:00 +14°C° 0 mm 2 mps 747 mmHg 90%
    21:00 +13°C° 0 mm 2 mps 747 mmHg 93%
    22:00 +12°C° 0 mm 2 mps 747 mmHg 96%
    23:00 +10°C° 0 mm 2 mps 747 mmHg 96%

    2 Febrero, Domingo

    Tiempo Temperatura Precipitaciones Viento Presión Humedad
    00:00 +10°C° 0 mm 2 mps 746 mmHg 97%
    01:00 +10°C° 0 mm 2 mps 746 mmHg 97%
    02:00 +9°C° 0 mm 2 mps 746 mmHg 97%
    03:00 +9°C° 0 mm 2 mps 746 mmHg 97%
    04:00 +10°C° 0 mm 1 mps 745 mmHg 96%
    05:00 +11°C° 0 mm 1 mps 745 mmHg 92%
    06:00 +13°C° 0 mm 1 mps 745 mmHg 88%
    07:00 +14°C° 0 mm 1 mps 745 mmHg 84%
    08:00 +16°C° 0 mm 1 mps 745 mmHg 70%
    09:00 +19°C° 0 mm 1 mps 746 mmHg 55%
    10:00 +21°C° 0 mm 2 mps 746 mmHg 41%
    11:00 +21°C° 0 mm 2 mps 746 mmHg 42%
    12:00 +20°C° 0 mm 3 mps 746 mmHg 43%
    13:00 +20°C° 0 mm 3 mps 746 mmHg 44%
    14:00 +20°C° 0 mm 3 mps 745 mmHg 46%
    15:00 +20°C° 0 mm 3 mps 745 mmHg 48%
    16:00 +19°C° 0 mm 3 mps 745 mmHg 50%
    17:00 +17°C° 0 mm 3 mps 745 mmHg 59%
    18:00 +14°C° 0 mm 3 mps 746 mmHg 68%
    19:00 +14°C° 0 mm 2 mps 746 mmHg 78%
    20:00 +12°C° 0 mm 3 mps 746 mmHg 82%
    21:00 +11°C° 0 mm 3 mps 746 mmHg 87%
    22:00 +10°C° 0 mm 4 mps 747 mmHg 91%
    23:00 +10°C° 0 mm 4 mps 746 mmHg 92%

    3 Febrero, Lunes

    Tiempo Temperatura Precipitaciones Viento Presión Humedad
    00:00 +10°C° 0 mm 4 mps 746 mmHg 92%
    01:00 +10°C° 0 mm 4 mps 746 mmHg 93%
    02:00 +10°C° 0 mm 4 mps 745 mmHg 93%
    03:00 +9°C° 0 mm 5 mps 745 mmHg 93%
    04:00 +10°C° 0 mm 5 mps 745 mmHg 93%
    05:00 +12°C° 0 mm 5 mps 745 mmHg 90%
    06:00 +13°C° 0 mm 6 mps 744 mmHg 86%
    07:00 +14°C° 0 mm 6 mps 744 mmHg 82%
    08:00 +15°C° 0 mm 7 mps 744 mmHg 75%
    09:00 +16°C° 0 mm 7 mps 744 mmHg 68%
    10:00 +17°C° 0 mm 8 mps 744 mmHg 60%
    11:00 +17°C° 0.1 mm 8 mps 744 mmHg 61%
    12:00 +17°C° 0.1 mm 8 mps 744 mmHg 62%
    13:00 +18°C° 0.1 mm 8 mps 744 mmHg 64%
    14:00 +15°C° 4.1 mm 7 mps 745 mmHg 74%
    15:00 +13°C° 4.1 mm 5 mps 745 mmHg 85%
    16:00 +10°C° 4.1 mm 3 mps 745 mmHg 96%
    17:00 +10°C° 2 mm 3 mps 746 mmHg 97%
    18:00 +10°C° 2 mm 2 mps 747 mmHg 97%
    19:00 +9°C° 2 mm 2 mps 747 mmHg 97%
    20:00 +9°C° 0 mm 3 mps 748 mmHg 97%
    21:00 +8°C° 0 mm 3 mps 749 mmHg 97%
    22:00 +7°C° 0 mm 4 mps 750 mmHg 97%
    23:00 +7°C° 0.1 mm 4 mps 750 mmHg 97%
    Mostrar más